Weather History for Grand Island, NE

Change the Weather History Date:

Sunday, September 2, 2012

  Actual Average Record
Temperature  
Mean Temperature 84 °F 71 °F  
Max Temperature 101 °F 83 °F 101 °F (1929)
Min Temperature 67 °F 58 °F 40 °F (1974)
Degree Days  
Heating Degree Days 0 1  
Month to date heating degree days 0 2  
Since 1 July heating degree days 4 12  
Cooling Degree Days 19 6  
Month to date cooling degree days 33 13  
Year to date cooling degree days 1417 927  
Growing Degree Days 33 (Base 50)    
Moisture  
Dew Point 64 °F    
Average Humidity 60    
Maximum Humidity 93    
Minimum Humidity 26    
Precipitation  
Precipitation 0.00 in 0.08 in 2.23 in (1942)
Month to date precipitation 0.00 0.17  
Year to date precipitation 8.11 20.94  
Snow  
Snow 0.00 in 0.00 in - ()
Month to date snowfall 0.0 0.0  
Since 1 July snowfall 0.0 0.0  
Since 1 September snowfall 0.0 0.0  
Snow Depth 0.00 in    
Sea Level Pressure  
Sea Level Pressure 29.88 in    
Wind  
Wind Speed 9 mph (South)    
Max Wind Speed 17 mph    
Max Gust Speed 23 mph    
Visibility 10 miles    
Events      
T = Trace of Precipitation, MM = Missing Value Source: NWS Daily Summary

Daily Weather History Graph

Daily Weather History Graph

Search for Another Location

Airport:

Trip Planner

Search our weather history database for the weather conditions in past years. The results will help you decide how hot, cold, wet, or windy it might be!

Date:

Astronomy

Sep. 02, 2012 Rise Set
Actual Time 7:01 AM CDT 8:03 PM CDT
Civil Twilight 6:33 AM CDT 8:31 PM CDT
Nautical Twilight 5:59 AM CDT 9:04 PM CDT
Astronomical Twilight 5:24 AM CDT 9:39 PM CDT
Moon 8:49 PM CDT (9/2) 9:13 AM CDT (9/2)
Length of Visible Light 13h 57m
Length of Day
13h 01m
Waning Gibbous, 95% of the Moon is Illuminated
Sep 2
Waning Gibbous
Sep 8
Last Quarter
Sep 15
New
Sep 22
First Quarter
Sep 29
Full

Hourly Weather History & Observations

Time (CDT) Temp. Heat Index Dew Point Humidity Pressure Visibility Wind Dir Wind Speed Gust Speed Precip Events Conditions
12:53 AM 75.0 °F - 63.0 °F 66% 29.93 in 10.0 mi SSE 11.5 mph - N/A   Clear
1:53 AM 73.0 °F - 64.0 °F 73% 29.93 in 10.0 mi SSE 11.5 mph - N/A   Clear
2:53 AM 71.6 °F - 64.4 °F 78% 29.98 in 10.0 mi SSE 12.7 mph - N/A   Clear
3:53 AM 71.1 °F - 64.9 °F 81% 29.91 in 10.0 mi SSE 9.2 mph - N/A   Clear
4:53 AM 70.0 °F - 64.9 °F 84% 29.92 in 10.0 mi South 11.5 mph - N/A   Clear
5:53 AM 68.0 °F - 64.9 °F 90% 29.92 in 10.0 mi South 9.2 mph - N/A   Clear
6:53 AM 66.9 °F - 64.9 °F 93% 29.93 in 10.0 mi South 10.4 mph - N/A   Clear
7:53 AM 69.8 °F - 64.4 °F 83% 29.98 in 10.0 mi South 9.2 mph - N/A   Clear
8:53 AM 75.0 °F - 66.0 °F 73% 29.92 in 10.0 mi South 11.5 mph - N/A   Clear
9:53 AM 80.1 °F 82.1 °F 66.0 °F 62% 29.91 in 10.0 mi SSE 13.8 mph 20.7 mph N/A   Clear
10:53 AM 84.9 °F 87.1 °F 66.0 °F 53% 29.91 in 10.0 mi South 15.0 mph - N/A   Clear
11:53 AM 90.0 °F 91.7 °F 64.9 °F 43% 29.90 in 10.0 mi South 12.7 mph - N/A   Clear
12:53 PM 91.9 °F 92.9 °F 63.0 °F 38% 29.88 in 10.0 mi SSW 12.7 mph - N/A   Clear
1:53 PM 95.0 °F 95.6 °F 62.1 °F 33% 29.86 in 10.0 mi SSW 12.7 mph - N/A   Clear
2:53 PM 97.0 °F 96.9 °F 60.1 °F 29% 29.83 in 10.0 mi SW 9.2 mph 18.4 mph N/A   Clear
3:53 PM 99.0 °F 99.5 °F 60.1 °F 28% 29.82 in 10.0 mi SW 15.0 mph - N/A   Clear
4:53 PM 100.0 °F 100.2 °F 59.0 °F 26% 29.81 in 10.0 mi SW 13.8 mph 17.3 mph N/A   Clear
5:53 PM 99.0 °F 98.6 °F 59.0 °F 26% 29.80 in 10.0 mi SSW 10.4 mph - N/A   Clear
6:53 PM 95.0 °F 95.6 °F 62.1 °F 33% 29.80 in 10.0 mi ESE 9.2 mph - N/A   Clear
7:53 PM 90.0 °F 90.6 °F 63.0 °F 40% 29.81 in 10.0 mi SE 4.6 mph - N/A   Clear
8:53 PM 84.9 °F 86.1 °F 64.0 °F 49% 29.83 in 10.0 mi Calm Calm - N/A   Clear
9:53 PM 82.0 °F 83.4 °F 64.0 °F 54% 29.85 in 10.0 mi ESE 3.5 mph - N/A   Clear
10:53 PM 82.4 °F 83.9 °F 64.4 °F 54% 29.92 in 10.0 mi Calm Calm - N/A   Clear
11:53 PM 80.1 °F 82.1 °F 66.0 °F 62% 29.87 in 10.0 mi Calm Calm - N/A   Clear